Regional Weather Roundup
Issued by NWS

Home | Current Version | Previous Version | Text Only | Print | Product List | Glossary Off
Versions: 1 2 3 4 5 6 7 8 9 10 11 12 13 14 15 16 17 18 19 20 21 22 23 24 25 26 27 28 29 30 31 32 33 34 35 36 37 38 39 40 41 42 43 44 45 46 47 48 49 50

000
ASUS43 KDTX 281001
RWRMI
MICHIGAN HOURLY REGIONAL WEATHER ROUNDUP
NATIONAL WEATHER SERVICE DETROIT/PONTIAC MI
600 AM EDT THU AUG 28 2014

NOTE: "FAIR" INDICATES FEW OR NO CLOUDS BELOW 12,000 FEET WITH NO
SIGNIFICANT WEATHER AND/OR OBSTRUCTION TO VISIBILITY.

MIZ047>049-052>055-059>063-066>070-074>076-081>083-281100-
SOUTHEAST LOWER MICHIGAN

CITY           SKY/WX    TMP DP  RH WIND       PRES   REMARKS
ADRIAN         CLOUDY    61  56  83 E7        30.15S
ALMA           CLEAR     48  46  93 CALM      30.18S
ANN ARBOR      MOCLDY    60  54  80 NE3       30.14S
BAD AXE        CLEAR     47  47 100 CALM      30.16R
CARO           CLEAR     48  47  97 CALM      30.16R
DETROIT CITY   PTCLDY    61  55  81 NW3       30.14S
DETROIT        MOCLDY    61  56  83 N6        30.14S
FLINT          CLEAR     56  52  86 NW3       30.16R
GROSSE ILE     PTCLDY    57  54  88 CALM      30.13S
HILLSDALE      CLOUDY    61  61 100 CALM      30.15R
HOWELL         PTCLDY    56  55  97 CALM      30.16R

CITY           SKY/WX    TMP DP  RH WIND       PRES   REMARKS
JACKSON        CLOUDY    60  57  89 NE3       30.15R
LAMBERTVILLE   CLOUDY    63  55  77 N3        30.15R
LANSING        MOCLDY    55  52  89 N5        30.17R
LAPEER         FAIR      51  49  96 CALM      30.17R
MASON          PTCLDY    56  55  95 CALM      30.16S
MONROE         MOCLDY    57  55  94 CALM      30.13S
MT. CLEMENS    CLOUDY    58  54  86 N6        30.13S
PONTIAC        PTCLDY    57  52  83 CALM      30.15R
PORT HOPE        N/A     60  53  77 VRB3      30.13R
PORT HURON     CLEAR     52  52 100 NW5       30.15R
TRI CITIES     CLEAR     50  46  86 N6        30.18R
TROY           PTCLDY    60  54  82 CALM      30.16S
SAGINAW HB     CLEAR     52  52 100 NW3       30.16R
$$
MIZ043>046-050>051-056>058-064>065-071>073-077>080-281100-
SOUTHWEST LOWER MICHIGAN

CITY           SKY/WX    TMP DP  RH WIND       PRES   REMARKS
BATTLE CREEK   CLEAR     56  51  84 NE3       30.16R
BENTON HARBOR  PTCLDY    57  52  83 NE7       30.14S
BIG RAPIDS     CLEAR     47  47 100 CALM      30.18S
COLDWATER      MOCLDY    60  57  92 NE6       30.15R
FREMONT        FAIR      50  48  93 E5        30.17F
HOLLAND        CLEAR     56  52  86 NE6       30.17S
GRAND RAPIDS   CLEAR     54  53  97 NE5       30.18R
IONIA          FAIR      53  50  90 NE6       30.17R
KALAMAZOO      CLEAR     56  51  84 N3        30.16R
LUDINGTON        N/A     44  44  97 CALM      30.18S FOG
MARSHALL       MOCLDY    55  52  92 CALM      30.15R
MOUNT PLEASANT CLEAR     46  46  97 CALM      30.18R
MUSKEGON       CLEAR     54  49  83 E6        30.17S
SOUTH HAVEN    CLEAR     56  54  92 E3        30.16S
$$
MIZ016>042-281100-
NORTHERN LOWER MICHIGAN

CITY           SKY/WX    TMP DP  RH WIND       PRES   REMARKS
ALPENA         CLEAR     45  43  93 CALM      30.17R
BEAVER ISLAND  CLOUDY    48  47  96 E3        30.18S
BELLAIRE       CLEAR     43  42  96 CALM      30.18S
CADILLAC       CLEAR     38  38 100 CALM      30.18S
CHARLEVOIX     MOCLDY    48  47  95 CALM      30.21R
FRANKFORT      CLEAR     47  44  90 CALM      30.17S
GAYLORD        CLEAR     43  40  89 CALM      30.19R
GRAYLING       CLEAR     39  39 100 MISG      30.19S FOG
HARBOR SPRINGS PTCLDY    45  43  92 CALM      30.18S
HOUGHTON LAKE  CLEAR     41  41 100 CALM      30.19R
MANISTEE       CLEAR     45  43  93 CALM      30.19S
OSCODA         CLEAR     45  44  95 NW3       30.16R
PELLSTON       CLEAR     38  37  97 CALM      30.18S
TRAVERSE CITY  CLEAR     47  45  93 CALM      30.17S
$$
MIZ007>008-015-281100-
EASTERN UPPER MICHIGAN

CITY           SKY/WX    TMP DP  RH WIND       PRES   REMARKS
KINROSS        CLEAR     45  45 100 W6        30.17R
MACKINAC ISLAN CLEAR     49  48  95 NW7       30.17S
NEWBERRY       CLEAR     42  38  88 W6        30.18S
S. S. MARIE    CLEAR     49  46  90 CALM      30.16S
$$
MIZ004>006-011>014-085-281100-
CENTRAL UPPER MICHIGAN

CITY           SKY/WX    TMP DP  RH WIND       PRES   REMARKS
MANISTIQUE     CLOUDY    49  46  90 N5        30.18S
ESCANABA       MOCLDY    54  46  76 CALM      30.17S
MENOMINEE      PTCLDY    57  52  82 S3        30.15F
SAWYER-GWINN   CLEAR     43  39  88 CALM      30.18S
$$
MIZ001>003-009>011-084-281100-
WESTERN UPPER MICHIGAN

CITY           SKY/WX    TMP DP  RH WIND       PRES   REMARKS
IRON MOUNTAIN  CLOUDY    50  48  93 NW3       30.17S
HOUGHTON       MOCLDY    47  43  86 CALM      30.15S
COPPER HARBOR    N/A     50  44  80 CALM      30.15S
$$

ABBREVIATIONS USED IN REMARKS
   TC - TEMPERATURE IN CELSIUS
  WCI - WIND CHILL INDEX
   HX - HEAT INDEX
  VSB - VISIBILITY



USA.gov is the U.S. government's official web portal to all federal, state and local government web resources and services.